This demonstration page uses our WeatherBlox Daily Observations layout. Learn more.

36.17497, -115.13722

Hourly Observations for November 26, 2018

Temp ( °F °C ) Dew Point ( °F °C ) Humidity (%) Winds ( mph kmh ) Pressure ( in mb ) Visibility ( mi km ) Precip ( " mm )
12:53 am 00:53 Clear 49 9.4 13 -10.6 23 23 N 10 17 30.24 1024 10 16.09344 0 0
1:53 am 01:53 Clear 49 9.4 13 -10.6 23 23 N 10 17 30.24 1024 10 16.09344 0 0
2:53 am 02:53 Clear 45 7.2 14 -10 29 29 SSE 6 9 30.27 1025 10 16.09344 0 0
3:53 am 03:53 Clear 46 7.8 14 -10 27 27 N 10 17 30.27 1025 10 16.09344 0 0
4:53 am 04:53 Clear 45 7.2 13 -10.6 27 27 N 9 15 30.27 1025 10 16.09344 0 0
5:53 am 05:53 Clear 45 7.2 14 -10 29 29 NNW 12 19 30.3 1026 10 16.09344 0 0
6:53 am 06:53 Sunny 47 8.3 14 -10 26 26 N 12 19 30.33 1027 10 16.09344 0 0
7:53 am 07:53 Sunny 49 9.4 14 -10 25 25 N 10 17 30.36 1028 10 16.09344 0 0
8:53 am 08:53 Sunny 52 11.1 15 -9.4 23 23 N 7 11 30.36 1028 10 16.09344 0 0
9:53 am 09:53 Sunny 54 12.2 14 -10 20 20 Calm 30.36 1028 10 16.09344 0 0
10:53 am 10:53 Sunny 56 13.3 15 -9.4 20 20 Calm 30.33 1027 10 16.09344 0 0
11:53 am 11:53 Sunny 58 14.4 14 -10 18 18 Calm 30.3 1026 10 16.09344 0 0
12:53 pm 12:53 Sunny 60 15.6 14 -10 16 16 E 3 6 30.27 1025 10 16.09344 0 0
1:53 pm 13:53 Sunny 60 15.6 13 -10.6 16 16 Calm 30.24 1024 10 16.09344 0 0
2:53 pm 14:53 Sunny 60 15.6 13 -10.6 16 16 Calm 30.24 1024 10 16.09344 0 0
3:53 pm 15:53 Sunny 60 15.6 13 -10.6 16 16 Calm 30.24 1024 10 16.09344 0 0
4:53 pm 16:53 Clear 58 14.4 13 -10.6 17 17 Calm 30.24 1024 10 16.09344 0 0
5:53 pm 17:53 Clear 55 12.8 17 -8.3 22 22 Calm 30.24 1024 10 16.09344 0 0
6:53 pm 18:53 Clear 51 10.6 19 -7.2 28 28 NW 6 9 30.24 1024 10 16.09344 0 0
7:53 pm 19:53 Clear 48 8.9 19 -7.2 32 32 NW 6 9 30.24 1024 10 16.09344 0 0
8:53 pm 20:53 Clear 46 7.8 18 -7.8 32 32 NNW 7 11 30.24 1024 10 16.09344 0 0
9:53 pm 21:53 Clear 46 7.8 19 -7.2 34 34 WNW 8 13 30.24 1024 10 16.09344 0 0
10:53 pm 22:53 Clear 46 7.8 16 -8.9 30 30 WNW 8 13 30.24 1024 10 16.09344 0 0
11:53 pm 23:53 Clear 45 7.2 17 -8.3 33 33 NW 3 6 30.24 1024 10 16.09344 0 0

Powered by AerisWeather